Flin Flon Airport
CYFO : now visible

Airfield :











YOU CAN JOIN US ON...

 
LOGIN :

Register | Disclaimer

   EN    FR    IT 

 









Legend :    VFR   Marginal VFR   IFR   Intensive IFR   Very Intensive IFR
Visi :
Ceiling :
>= 8 km
>= 3000ft
5 to 8 km
1000 to 3000 ft
1500m to 5 km
500 to 1000 ft
800 to 1500m
200 to 500 ft
< 800m
< 200 ft
Symbols :   Thunderstorms  Fog  Heavy snow  Heavy precipitations  Wind > 20 kt






- Airport Elevation : 997 ft
- IATA code : YFO


CYFO - Flin Flon

CURRENT METAR :
  • 042300Z 17006KT 15SM FEW060TCU BKN200 28/15 A2991 RMK TCU1CI4 LAST OBS/NEXT 051100UTC SLP131 DENSITY ALT 2800FT

EXPIRED METARs :
  • 042200Z 21006KT 140V220 15SM FEW060TCU BKN250 29/12 A2992 RMK TCU1CI5 TCU TR SLP135 DENSITY ALT 2800FT

TAF N/A
CZWG FIR / North America



MET'MAP, your aeronautical weather chart ! - Copyright ORBIFLY December 2007 - Disclaimer

ORBIFLY MET'MAP TEAM :

Programming & Development : Alexandra Zaïnal
Concept & original design : Baudouin d'Aumeries
Assistance for programming : Marc-Olivier Méhu
Technical & hardware support : Manuel Goepfert

Contact : metmap@orbifly.com




SOURCES & CREDITS :

   NOAA       Earth
Advisory